#timestamp,LO_Frequency,Hit,StdDev 
1561316415.7,286047003.4,N
1561316435.5,286047004.2,N
1561316455.4,286047005.5,N
1561316475.2,286047008.8,Y
1561316495.0,286047007.0,P
1561316495.9,286047007.0,N
1561316515.8,286047006.5,N
1561316535.6,286047004.8,N
1561316555.4,286047003.0,N
1561316575.3,286047004.4,N
1561316595.1,286047002.8,N
1561316615.9,286047001.4,N
1561316635.7,286047004.8,N
1561316655.5,286047004.7,N
1561316675.4,286047003.0,N
1561316695.2,286047005.8,Y
1561316715.1,286046999.7,P
1561316716.0,286046999.7,N
1561316735.8,286047000.4,N
1561316755.6,286047002.4,N
1561316775.5,286047002.4,N
1561316795.3,286047003.3,N
1561316815.1,286047005.7,Y
1561316835.9,286047004.3,P
1561316855.7,286047001.3,N
1561316875.6,286047004.1,P
1561316895.4,286047005.0,Y
1561316915.2,286047002.7,P
1561316935.1,286047000.9,P
1561316936.0,286047000.9,N
1561316955.8,286047000.8,N
1561316975.7,286047000.4,N
1561316995.5,286047000.6,N
1561317015.3,286047000.0,N
1561317035.2,286047000.4,N
1561317055.0,286047000.3,N
1561317055.9,286047000.3,N
1561317075.7,286047000.7,N
1561317095.6,286047000.9,N
1561317115.4,286047001.0,N
1561317135.3,286046998.2,N
1561317155.1,286047001.1,N
1561317175.8,286047000.0,N
1561317195.7,286047003.9,Y
1561317215.5,286046999.9,P
1561317235.4,286047002.4,P
1561317255.2,286047002.7,N
1561317275.0,286047001.1,N
1561317275.9,286047001.1,N
1561317295.8,286047001.5,N
1561317315.6,286047003.6,Y
1561317335.4,286047000.0,P
1561317355.3,286047000.5,N
1561317375.1,286047002.4,P
1561317395.9,286047002.3,N
1561317415.7,286047000.3,N
1561317435.5,286047004.4,Y
1561317455.4,286046998.2,P
1561317475.2,286047002.7,N
1561317495.1,286047000.1,N
1561317496.0,286047000.1,N
1561317515.8,286047001.9,N
1561317535.6,286047004.4,Y
1561317555.5,286047002.3,P
1561317575.3,286047002.2,N
1561317595.1,286047002.5,P
1561317615.9,286047002.4,Y
1561317635.7,286047001.2,P
1561317655.6,286047000.9,N
1561317675.4,286047000.8,N
1561317695.3,286046998.2,Y
1561317715.1,286046998.5,P
1561317716.0,286046998.5,N
1561317735.8,286047001.0,N
1561317755.7,286047000.0,N
1561317775.5,286047000.8,N
1561317795.3,286047001.0,N
1561317815.2,286047000.7,N
1561317835.0,286046998.3,N
1561317835.9,286046998.3,N
1561317855.8,286047000.5,N
1561317875.6,286046999.8,N
1561317895.4,286046999.8,N
1561317915.3,286047000.7,N
1561317935.1,286046998.8,N
1561317955.9,286047001.1,N
1561317975.7,286046998.5,N
1561317995.5,286047000.5,N
1561318015.4,286047000.3,N
1561318035.2,286047000.1,N
1561318055.0,286047001.1,N
1561318055.9,286047001.1,N
1561318075.8,286047000.4,N
1561318095.6,286047000.5,N
1561318115.5,286047000.5,N
1561318135.3,286047000.6,N
1561318155.1,286046999.1,N
1561318175.9,286046996.8,Y
1561318195.7,286046997.0,P
1561318215.5,286046998.1,N
1561318235.4,286046999.1,N
1561318255.2,286046996.8,N
1561318275.1,286046999.2,N
1561318276.0,286046999.2,N
1561318295.8,286047001.2,N
1561318315.6,286046997.7,N
1561318335.5,286046993.9,Y
1561318355.3,286046993.3,P
1561318375.2,286046993.3,N
1561318395.9,286046996.2,N
1561318415.7,286046996.0,N
1561318435.6,286046995.1,N
1561318455.4,286047011.9,Y
1561318475.2,286047000.2,P
1561318495.1,286047004.4,N
1561318496.0,286047004.4,N
1561318515.8,286047003.2,N
1561318535.7,286047003.3,N
1561318555.5,286047003.0,N
1561318575.3,286047005.5,N
1561318595.2,286047007.0,N
1561318615.0,286047009.1,N
1561318615.9,286047009.1,N
1561318635.8,286047007.8,N
1561318655.6,286047007.7,N
1561318675.4,286047010.4,N
1561318695.3,286047010.4,N
1561318715.1,286047009.9,N
1561318735.9,286047012.3,Y
1561318755.7,286047004.6,P
1561318775.5,286047006.2,P
1561318795.4,286047006.5,P
1561318815.2,286047006.3,Y
1561318835.0,286047002.5,P
1561318836.0,286047002.5,N
1561318855.8,286047003.9,N
1561318875.6,286047003.3,N
1561318895.5,286047005.6,Y
1561318915.3,286047004.0,P
1561318935.1,286047002.7,P
1561318955.9,286047002.7,P
1561318975.7,286047003.9,Y
1561318995.6,286047000.8,P
1561319015.4,286047000.7,N
1561319035.2,286046998.3,N
1561319055.1,286046999.7,N
1561319056.0,286046999.7,N
1561319075.8,286046998.2,N
1561319095.6,286046998.2,N
1561319115.5,286047000.2,N
1561319135.3,286046998.9,N
1561319155.2,286047001.2,N
1561319175.9,286047002.5,N
1561319195.7,286047000.6,N
1561319215.6,286047002.1,N
1561319235.4,286047002.6,N
1561319255.3,286047004.1,N
1561319275.1,286047003.9,N
1561319276.0,286047003.9,N
1561319295.8,286047004.0,N
1561319315.7,286047001.8,N
1561319335.5,286047004.0,N
1561319355.3,286047003.4,N
1561319375.2,286047003.3,N
1561319395.0,286047005.4,N
1561319395.9,286047005.4,N
1561319415.8,286047004.6,N
1561319435.6,286047007.2,Y
1561319455.4,286047001.3,P
1561319475.3,286047002.2,P
1561319495.1,286047002.0,P
1561319515.9,286047002.8,Y
1561319535.7,286046998.5,P
1561319555.5,286046999.7,N
1561319575.4,286047001.3,N
1561319595.2,286047001.5,N
1561319615.0,286047003.7,N
1561319615.9,286047003.7,N
1561319635.8,286047003.6,N
1561319655.6,286047003.7,N
1561319675.5,286047003.9,N
1561319695.3,286047004.2,N
1561319715.1,286047002.1,N
1561319735.9,286047001.8,N
1561319755.7,286047002.2,N
1561319775.5,286047002.2,N
1561319795.4,286046999.8,N
1561319815.2,286047002.3,N
1561319835.1,286047004.4,N
1561319836.0,286047004.4,N
1561319855.8,286047002.5,N
1561319875.6,286047001.8,N
1561319895.5,286047000.2,N
1561319915.3,286047000.7,N
1561319935.1,286047001.5,N
1561319955.9,286047003.8,N
1561319975.7,286047004.4,N
1561319995.6,286047002.6,N
